FW8343 Weather Reports


time (UTC)temp
F
wind
direction
speed
knots
gust
knots
rain 1hr
in
rain 24hr
in
rain mn
in
humidity
%
barometer
mb
20260906083519 63 126 0.9 3.5 0.00 0.00 0.00 98 1021.2
20260906083037 62 0 0.0 0.9 0.00 0.00 0.00 97 1021.4
20260906082518 63 0 0.0 3.5 0.00 0.00 0.00 97 1021.4
20260906082016 63 0 0.0 3.5 0.00 0.00 0.00 98 1020.9
20260906081534 63 126 0.0 2.6 0.00 0.00 0.00 98 1020.7
20260906081020 62 0 0.0 1.7 0.00 0.00 0.00 98 1020.8
20260906080524 62 0 0.0 0.0 0.00 0.00 0.00 97 1021.0
20260906080038 62 0 0.0 0.0 0.00 0.00 0.00 96 1021.0
20260906075522 62 0 0.0 0.0 0.00 0.00 0.00 96 1020.9
20260906075021 62 0 0.0 0.0 0.00 0.00 0.00 96 1020.9
20260906074535 62 0 0.0 0.0 0.00 0.00 0.00 96 1021.1
20260906074021 63 0 0.0 0.0 0.00 0.00 0.00 96 1021.0
20260906073517 63 0 0.0 0.0 0.00 0.00 0.00 97 1021.0
20260906073036 63 0 0.0 0.0 0.00 0.00 0.00 97 1020.9
20260906072517 63 0 0.0 0.0 0.00 0.00 0.00 97 1021.1
20260906072026 63 0 0.0 0.0 0.00 0.00 0.00 98 1021.1
20260906071532 63 0 0.0 0.0 0.00 0.00 0.00 97 1021.1
20260906071020 63 0 0.0 0.0 0.00 0.00 0.00 97 1020.9
20260906070520 63 0 0.0 0.0 0.00 0.00 0.00 97 1021.0
20260906070035 63 0 0.0 0.0 0.00 0.00 0.00 98 1020.8
20260906065519 62 0 0.0 0.0 0.00 0.00 0.00 97 1020.9
20260906065019 62 0 0.0 0.0 0.00 0.00 0.00 97 1020.9
20260906064534 62 0 0.0 0.0 0.00 0.00 0.00 97 1021.0
20260906064018 62 0 0.0 0.0 0.00 0.00 0.00 97 1021.1
20260906063516 61 0 0.0 0.0 0.00 0.00 0.00 97 1021.2
20260906063034 61 0 0.0 0.0 0.00 0.00 0.00 97 1021.3
20260906062544 61 0 0.0 0.0 0.00 0.00 0.00 96 1021.3
20260906062021 61 0 0.0 0.0 0.00 0.00 0.00 96 1021.3
20260906061540 61 0 0.0 0.0 0.00 0.00 0.00 96 1021.3
20260906061020 61 0 0.0 0.0 0.00 0.00 0.00 96 1021.3
20260906060521 61 0 0.0 0.0 0.00 0.00 0.00 96 1021.3
20260906060037 61 0 0.0 0.0 0.00 0.00 0.00 96 1021.3
20260906055519 62 0 0.0 0.0 0.00 0.00 0.00 96 1021.0
20260906055019 62 0 0.0 0.0 0.00 0.00 0.00 95 1020.9
20260906054536 62 0 0.0 0.0 0.00 0.00 0.00 95 1020.9
20260906054022 62 0 0.0 0.0 0.00 0.00 0.00 95 1021.0
20260906053522 62 0 0.0 0.0 0.00 0.00 0.00 95 1021.0
20260906053043 62 0 0.0 0.0 0.00 0.00 0.00 95 1020.9
20260906052523 62 0 0.0 0.0 0.00 0.00 0.00 95 1021.0
20260906052020 62 0 0.0 0.0 0.00 0.00 0.00 95 1021.0
20260906051535 63 0 0.0 0.0 0.00 0.00 0.00 95 1020.9
20260906051024 63 0 0.0 0.0 0.00 0.00 0.00 95 1020.7
20260906050519 62 0 0.0 0.0 0.00 0.00 0.00 95 1020.8
20260906050046 62 0 0.0 0.0 0.00 0.00 0.00 95 1020.6
20260906045520 62 0 0.0 0.0 0.00 0.00 0.00 94 1020.8
20260906045018 62 0 0.0 0.0 0.00 0.00 0.00 94 1020.9
20260906044537 62 0 0.0 0.0 0.00 0.00 0.00 94 1021.0
20260906044021 63 0 0.0 0.0 0.00 0.00 0.00 94 1021.0
20260906043521 63 0 0.0 0.0 0.00 0.00 0.00 94 1021.0
20260906043035 63 0 0.0 0.0 0.00 0.00 0.00 94 1020.9
20260906042520 63 0 0.0 0.0 0.00 0.00 0.00 94 1020.9
20260906042020 63 0 0.0 0.0 0.00 0.00 0.00 94 1020.9
20260906041536 63 0 0.0 0.0 0.00 0.00 0.00 94 1020.9
20260906041020 63 0 0.0 0.0 0.00 0.00 0.00 94 1020.9
20260906040520 63 0 0.0 0.0 0.00 0.00 0.00 94 1020.9
20260906040041 63 0 0.0 0.0 0.00 0.00 0.00 94 1021.0
20260906035517 63 0 0.0 0.0 0.00 0.00 0.00 94 1020.8
20260906035019 63 0 0.0 0.0 0.00 0.00 0.00 94 1020.6
20260906034543 63 0 0.0 0.0 0.00 0.00 0.00 93 1020.6
20260906034020 63 0 0.0 0.0 0.00 0.00 0.00 93 1020.5
20260906033520 63 0 0.0 0.0 0.00 0.00 0.00 93 1020.5
20260906033044 63 0 0.0 0.0 0.00 0.00 0.00 93 1020.4
20260906032519 63 0 0.0 0.0 0.00 0.00 0.00 93 1020.2
20260906032020 63 0 0.0 0.0 0.00 0.00 0.00 93 1020.2
20260906031534 63 0 0.0 0.0 0.00 0.00 0.00 93 1020.1
20260906031019 63 0 0.0 0.0 0.00 0.00 0.00 93 1020.0
20260906030520 63 0 0.0 0.0 0.00 0.00 0.00 93 1020.1
20260906030040 64 0 0.0 0.0 0.00 0.00 0.00 93 1020.1
20260906025518 63 0 0.0 0.0 0.00 0.00 0.00 93 1020.2
20260906025018 63 0 0.0 0.0 0.00 0.00 0.00 92 1020.2
20260906024539 64 0 0.0 0.0 0.00 0.00 0.00 92 1020.1
20260906024018 64 0 0.0 0.0 0.00 0.00 0.00 92 1020.0
20260906023520 64 0 0.0 0.0 0.00 0.00 0.00 92 1020.0
20260906023035 64 0 0.0 0.0 0.00 0.00 0.00 92 1019.8
20260906022520 64 0 0.0 0.0 0.00 0.00 0.00 92 1019.8
20260906022020 64 0 0.0 0.0 0.00 0.00 0.00 92 1019.8
20260906021533 64 0 0.0 0.0 0.00 0.00 0.00 92 1019.8
20260906021024 64 0 0.0 0.0 0.00 0.00 0.00 92 1019.6
20260906020519 64 0 0.0 0.0 0.00 0.00 0.00 92 1019.6
20260906020043 64 0 0.0 0.0 0.00 0.00 0.00 92 1019.6
20260906015518 64 0 0.0 0.0 0.00 0.00 0.00 92 1019.5
20260906015016 64 0 0.0 0.0 0.00 0.00 0.00 92 1019.5
20260906014545 64 0 0.0 0.0 0.00 0.00 0.00 92 1019.5
20260906014019 64 0 0.0 0.0 0.00 0.00 0.00 92 1019.5
20260906013520 64 0 0.0 0.0 0.00 0.00 0.00 91 1019.6
20260906013037 65 0 0.0 0.0 0.00 0.00 0.00 91 1019.6
20260906012515 65 0 0.0 0.0 0.00 0.00 0.00 91 1019.5
20260906012015 65 0 0.0 0.0 0.00 0.00 0.00 91 1019.6
20260906011534 65 0 0.0 0.0 0.00 0.00 0.00 90 1019.3
20260906011019 65 0 0.0 0.0 0.00 0.00 0.00 90 1019.5
20260906010524 65 0 0.0 0.0 0.00 0.00 0.00 89 1019.6
20260906010034 66 0 0.0 0.0 0.00 0.00 0.00 88 1019.5
20260906005522 66 0 0.0 0.0 0.00 0.00 0.00 88 1019.5
20260906005020 66 0 0.0 0.0 0.00 0.00 0.00 88 1019.5
20260906004534 67 0 0.0 0.0 0.00 0.00 0.00 87 1019.7
20260906004024 67 0 0.0 0.0 0.00 0.00 0.00 87 1019.7
20260906003518 67 0 0.0 0.0 0.00 0.00 0.00 86 1019.6
20260906003034 68 0 0.0 0.0 0.00 0.00 0.00 86 1019.6
20260906002519 68 0 0.0 0.0 0.00 0.00 0.00 86 1019.6
20260906002021 68 0 0.0 0.0 0.00 0.00 0.00 85 1019.5
20260906001533 69 0 0.0 0.9 0.00 0.00 0.00 85 1019.5
20260906001021 69 0 0.0 0.9 0.00 0.00 0.00 84 1019.5
20260906000521 70 0 0.0 0.9 0.00 0.00 0.00 84 1019.6
20260906000037 70 0 0.0 0.9 0.00 0.00 0.00 83 1019.6
20260905235521 70 0 0.0 1.7 0.00 0.00 0.00 83 1019.6
20260905235020 71 0 0.0 1.7 0.00 0.00 0.00 82 1019.6
20260905234537 71 0 0.0 2.6 0.00 0.00 0.00 82 1019.5
20260905234017 71 0 0.0 2.6 0.00 0.00 0.00 83 1019.5
20260905233519 72 0 0.0 2.6 0.00 0.00 0.00 82 1019.6
20260905233039 72 0 0.0 2.6 0.00 0.00 0.00 82 1019.7
20260905232524 72 0 0.0 1.7 0.00 0.00 0.00 83 1019.6
20260905232020 72 0 0.0 0.0 0.00 0.00 0.00 82 1019.5
20260905231541 72 0 0.0 0.0 0.00 0.00 0.00 83 1019.4
20260905231024 73 0 0.0 0.9 0.00 0.00 0.00 84 1019.5
20260905230521 73 0 0.0 1.7 0.00 0.00 0.00 82 1019.4
20260905230041 73 0 0.0 1.7 0.00 0.00 0.00 82 1019.5
20260905225521 73 0 0.0 1.7 0.00 0.00 0.00 83 1019.5
20260905225020 73 319 0.0 0.9 0.00 0.00 0.00 83 1019.6
20260905224535 73 0 0.0 1.7 0.00 0.00 0.00 84 1019.5
20260905224020 73 0 0.0 1.7 0.00 0.00 0.00 83 1019.6
20260905223518 73 0 0.0 1.7 0.00 0.00 0.00 83 1019.5
20260905223037 73 0 0.0 0.9 0.00 0.00 0.00 83 1019.5
20260905222520 73 0 0.0 0.9 0.00 0.00 0.00 84 1019.5
20260905222023 74 0 0.0 1.7 0.00 0.00 0.00 83 1019.6
20260905221536 74 0 0.0 1.7 0.00 0.00 0.00 82 1019.7
20260905221020 75 0 0.0 0.9 0.00 0.00 0.00 82 1019.7
20260905220519 75 0 0.0 0.9 0.00 0.00 0.00 82 1019.6
20260905220035 75 175 0.0 0.9 0.00 0.00 0.00 83 1019.6
20260905215521 75 0 0.0 0.9 0.00 0.00 0.00 82 1019.5
20260905215016 75 0 0.0 0.9 0.00 0.00 0.00 82 1019.6
20260905214536 75 0 0.0 0.9 0.00 0.00 0.00 83 1019.6
20260905214019 74 0 0.0 0.9 0.00 0.00 0.00 82 1019.7
20260905213523 74 0 0.0 0.9 0.00 0.00 0.00 84 1019.7
20260905213035 74 0 0.0 0.9 0.00 0.00 0.00 84 1019.6
20260905212523 74 0 0.0 0.9 0.00 0.00 0.00 84 1019.8
20260905212019 74 0 0.0 0.9 0.00 0.00 0.00 83 1019.8
20260905211606 74 0 0.0 0.9 0.00 0.00 0.00 83 1019.9
20260905211019 74 0 0.0 1.7 0.00 0.00 0.00 84 1019.9
20260905210517 74 0 0.0 1.7 0.00 0.00 0.00 83 1019.9
20260905210035 74 0 0.0 1.7 0.00 0.00 0.00 83 1019.9
20260905205524 74 0 0.0 1.7 0.00 0.00 0.00 83 1019.8
20260905205021 74 0 0.0 1.7 0.00 0.00 0.00 84 1019.9
20260905204537 75 0 0.0 2.6 0.00 0.00 0.00 83 1020.0
20260905204020 75 0 0.0 2.6 0.00 0.00 0.00 82 1020.2
20260905203518 75 0 0.0 2.6 0.00 0.00 0.00 81 1020.2
20260905203039 75 0 0.0 2.6 0.00 0.00 0.00 82 1020.2
20260905202516 75 0 0.0 2.6 0.00 0.00 0.00 81 1020.1
20260905202016 75 0 0.0 3.5 0.00 0.00 0.00 82 1020.1
20260905201534 75 0 0.0 4.3 0.00 0.00 0.00 82 1020.1
20260905201019 75 323 0.0 4.3 0.00 0.00 0.00 82 1020.2
20260905200523 75 0 0.0 4.3 0.00 0.00 0.00 81 1020.2
20260905200036 75 0 0.0 3.5 0.00 0.00 0.00 81 1020.3
20260905195520 75 0 0.0 1.7 0.00 0.00 0.00 83 1020.3
20260905195026 74 0 0.0 2.6 0.00 0.00 0.00 82 1020.2
20260905194537 74 0 0.0 2.6 0.00 0.00 0.00 83 1020.1
20260905194019 74 153 0.0 2.6 0.00 0.00 0.00 82 1020.1
20260905193516 75 106 0.0 2.6 0.00 0.00 0.00 82 1020.1
20260905193038 74 0 0.0 1.7 0.00 0.00 0.00 83 1020.0
20260905192521 74 0 0.0 3.5 0.00 0.00 0.00 83 1020.0
20260905192022 74 0 0.0 3.5 0.00 0.00 0.00 82 1020.0
20260905191539 74 0 0.0 1.7 0.00 0.00 0.00 84 1019.9
20260905191021 74 0 0.0 1.7 0.00 0.00 0.00 82 1020.0
20260905190522 74 0 0.0 1.7 0.00 0.00 0.00 82 1020.0
20260905190032 74 0 0.0 0.9 0.00 0.00 0.00 82 1020.0
20260905185519 74 0 0.0 1.7 0.00 0.00 0.00 83 1020.1
20260905185018 73 0 0.0 1.7 0.00 0.00 0.00 84 1020.1
20260905184534 73 0 0.0 3.5 0.00 0.00 0.00 86 1020.3
20260905184016 73 0 0.0 3.5 0.00 0.00 0.00 85 1020.3
20260905183521 72 344 0.0 3.5 0.00 0.00 0.00 84 1020.4
20260905183036 72 0 0.0 3.5 0.00 0.00 0.00 85 1020.3
20260905182523 72 0 0.0 3.5 0.00 0.00 0.00 86 1020.4
20260905182020 71 323 0.0 3.5 0.00 0.00 0.00 87 1020.5
20260905181536 71 0 0.0 0.0 0.00 0.00 0.00 89 1020.3
20260905181020 70 0 0.0 0.0 0.00 0.00 0.00 90 1020.4
20260905180523 70 0 0.0 0.9 0.00 0.00 0.00 88 1020.3
20260905180036 70 0 0.0 0.9 0.00 0.00 0.00 87 1020.4
20260905175521 70 0 0.0 0.9 0.00 0.00 0.00 88 1020.4
20260905175020 70 0 0.0 1.7 0.00 0.00 0.00 89 1020.4
20260905174534 70 0 0.0 1.7 0.00 0.00 0.00 89 1020.5
20260905174018 70 0 0.0 1.7 0.00 0.00 0.00 90 1020.7
20260905173518 69 0 0.0 0.9 0.00 0.00 0.00 90 1020.8
20260905173033 69 0 0.0 0.9 0.00 0.00 0.00 91 1020.8
20260905172520 69 0 0.0 0.9 0.00 0.00 0.00 90 1020.8
20260905172021 69 0 0.0 0.9 0.00 0.00 0.00 92 1020.8
20260905171536 68 0 0.0 0.9 0.00 0.00 0.00 91 1020.7
20260905171022 68 0 0.0 0.0 0.00 0.00 0.00 92 1020.8
20260905170519 68 0 0.0 0.0 0.00 0.00 0.00 92 1020.9
20260905170038 68 0 0.0 0.0 0.00 0.00 0.00 92 1020.9
20260905165518 68 0 0.0 0.9 0.00 0.00 0.00 92 1021.0
20260905165016 68 0 0.0 0.9 0.00 0.00 0.00 92 1021.0
20260905164535 68 0 0.0 2.6 0.00 0.00 0.00 93 1020.9
20260905164018 67 0 0.0 2.6 0.00 0.00 0.00 93 1020.9
20260905163525 67 0 0.0 2.6 0.00 0.00 0.00 93 1021.0
20260905163037 67 0 0.0 1.7 0.00 0.00 0.00 94 1020.9
20260905162522 67 0 0.0 2.6 0.00 0.00 0.00 94 1020.9
20260905162022 67 0 0.0 2.6 0.00 0.00 0.00 95 1021.0
20260905161534 67 0 0.0 2.6 0.00 0.00 0.00 94 1021.0
20260905161020 67 144 0.0 2.6 0.00 0.00 0.00 95 1021.0
20260905160519 67 144 0.9 2.6 0.00 0.00 0.00 94 1020.9
20260905160037 67 144 0.9 2.6 0.00 0.00 0.00 94 1020.8
20260905155520 66 0 0.0 2.6 0.00 0.00 0.00 95 1020.9
20260905155022 66 144 0.0 2.6 0.00 0.00 0.00 94 1020.8
20260905154544 67 0 0.9 2.6 0.00 0.00 0.00 95 1020.9
20260905154018 67 0 0.0 1.7 0.00 0.00 0.00 95 1020.9
20260905153520 67 0 0.0 1.7 0.00 0.00 0.00 96 1020.9
20260905153037 67 0 0.0 2.6 0.00 0.00 0.00 96 1020.7
20260905152520 67 0 0.0 3.5 0.00 0.00 0.00 97 1020.6
20260905152022 67 144 0.0 3.5 0.00 0.00 0.00 97 1020.6
20260905151538 67 144 0.0 2.6 0.00 0.00 0.00 97 1020.5
20260905151017 66 0 0.0 0.9 0.00 0.00 0.00 97 1020.4
20260905150518 66 0 0.0 0.0 0.00 0.00 0.00 97 1020.6
20260905150039 66 0 0.0 0.0 0.00 0.00 0.00 97 1020.6
20260905145527 67 0 0.0 0.0 0.00 0.00 0.00 97 1020.5
20260905145020 67 0 0.0 2.6 0.00 0.00 0.00 98 1020.4
20260905144536 66 0 0.0 2.6 0.00 0.00 0.00 98 1020.4
20260905144019 66 0 0.0 2.6 0.00 0.00 0.00 98 1020.3
20260905143519 66 175 0.0 1.7 0.00 0.00 0.00 99 1020.4
20260905143035 66 0 0.0 1.7 0.00 0.00 0.00 99 1020.3
20260905142517 66 0 0.0 1.7 0.00 0.00 0.00 99 1020.2
20260905142016 66 0 0.0 1.7 0.00 0.00 0.00 99 1020.1
20260905141536 66 0 0.0 1.7 0.00 0.00 0.00 100 1019.8
20260905141023 66 0 0.0 1.7 0.00 0.00 0.00 100 1019.8
20260905140524 66 0 0.0 1.7 0.00 0.00 0.00 100 1019.8
20260905140037 66 0 0.0 0.9 0.00 0.00 0.00 100 1019.6
20260905135519 66 0 0.0 0.9 0.00 0.00 0.00 100 1019.6
20260905135020 66 0 0.0 0.9 0.00 0.00 0.00 100 1019.5
20260905134544 66 0 0.0 0.0 0.00 0.00 0.00 100 1019.5
20260905134020 66 0 0.0 0.0 0.00 0.00 0.00 100 1019.6
20260905133523 65 0 0.0 0.0 0.00 0.00 0.00 100 1019.6
20260905133034 65 0 0.0 0.0 0.00 0.00 0.00 100 1019.8
20260905132519 65 0 0.0 0.0 0.00 0.00 0.00 100 1019.9
20260905132016 65 0 0.0 0.0 0.00 0.00 0.00 100 1019.9
20260905131536 65 0 0.0 0.0 0.00 0.00 0.00 100 1020.0
20260905131020 65 0 0.0 0.0 0.00 0.00 0.00 100 1020.0
20260905130524 65 0 0.0 0.0 0.00 0.00 0.00 100 1019.9
20260905130034 64 0 0.0 0.0 0.00 0.00 0.00 100 1019.7
20260905125519 64 0 0.0 0.0 0.00 0.00 0.00 100 1019.8
20260905125023 64 0 0.0 0.0 0.00 0.00 0.00 100 1019.7
20260905124537 64 0 0.0 0.0 0.00 0.00 0.00 100 1019.7
20260905124017 64 0 0.0 0.0 0.00 0.00 0.00 100 1019.8
20260905123516 64 0 0.0 0.0 0.00 0.00 0.00 100 1019.8
20260905123036 64 0 0.0 0.0 0.00 0.00 0.00 100 1019.7
20260905122522 64 0 0.0 0.0 0.00 0.00 0.00 100 1019.7
20260905122016 64 0 0.0 0.0 0.00 0.00 0.00 100 1019.5
20260905121535 64 0 0.0 0.0 0.00 0.00 0.00 100 1019.4
20260905121021 64 0 0.0 0.0 0.00 0.00 0.00 100 1019.2
20260905120525 64 0 0.0 0.0 0.00 0.00 0.00 100 1019.1
20260905120035 63 0 0.0 0.0 0.00 0.00 0.00 100 1019.1
20260905115518 63 0 0.0 0.0 0.00 0.00 0.00 100 1018.9
20260905115020 63 0 0.0 0.0 0.00 0.00 0.00 100 1019.0
20260905114537 63 0 0.0 0.0 0.00 0.00 0.00 100 1018.9
20260905114021 63 0 0.0 0.0 0.00 0.00 0.00 100 1018.7
20260905113519 63 0 0.0 0.0 0.00 0.00 0.00 100 1018.7
20260905113037 63 0 0.0 0.0 0.00 0.00 0.00 100 1018.6
20260905112516 63 0 0.0 0.0 0.00 0.00 0.00 100 1018.5
20260905112022 63 0 0.0 0.0 0.00 0.00 0.00 100 1018.4
20260905111538 63 0 0.0 0.0 0.00 0.00 0.00 100 1018.4
20260905111026 63 0 0.0 0.0 0.00 0.00 0.00 100 1018.4
20260905110521 63 0 0.0 0.0 0.00 0.00 0.00 100 1018.3
20260905110036 64 0 0.0 0.0 0.00 0.00 0.00 100 1018.3
20260905105521 64 0 0.0 0.0 0.00 0.00 0.00 100 1018.3
20260905105021 63 0 0.0 0.0 0.00 0.00 0.00 100 1018.2
20260905104536 63 0 0.0 0.0 0.00 0.00 0.00 100 1018.1
20260905104020 63 0 0.0 0.0 0.00 0.00 0.00 100 1018.3
20260905103519 63 0 0.0 0.9 0.00 0.00 0.00 100 1018.3
20260905103044 63 0 0.0 0.9 0.00 0.00 0.00 100 1018.2
20260905102519 63 0 0.0 0.0 0.00 0.00 0.00 100 1018.3
20260905102019 63 0 0.0 0.0 0.00 0.00 0.00 100 1018.4
20260905101537 63 0 0.0 0.0 0.00 0.00 0.00 100 1018.4
20260905101019 63 0 0.0 0.0 0.00 0.00 0.00 99 1018.5
20260905100519 63 0 0.0 0.0 0.00 0.00 0.00 99 1018.5
20260905100040 63 0 0.0 0.0 0.00 0.00 0.00 99 1018.5
20260905095521 63 0 0.0 0.0 0.00 0.00 0.00 99 1018.6
20260905095020 63 0 0.0 0.0 0.00 0.00 0.00 99 1018.6
20260905094537 63 0 0.0 0.0 0.00 0.00 0.00 99 1018.5
20260905094019 63 0 0.0 0.0 0.00 0.00 0.00 99 1018.5
20260905093522 63 0 0.0 0.0 0.00 0.00 0.00 99 1018.5
20260905093048 63 0 0.0 0.0 0.00 0.00 0.00 99 1018.5
20260905092521 63 0 0.0 0.0 0.00 0.00 0.00 99 1018.7
20260905092019 63 0 0.0 0.9 0.00 0.00 0.00 99 1018.6
20260905091537 63 0 0.0 0.9 0.00 0.00 0.00 99 1018.6
20260905091022 63 0 0.0 0.9 0.00 0.00 0.00 99 1018.6
20260905090518 63 0 0.0 0.9 0.00 0.00 0.00 99 1018.6
20260905090038 63 0 0.0 0.0 0.00 0.00 0.00 99 1018.7
20260905085521 63 0 0.0 1.7 0.00 0.00 0.00 99 1018.8
20260905085018 63 0 0.0 1.7 0.00 0.00 0.00 99 1018.8
20260905084536 63 0 0.0 0.0 0.00 0.00 0.00 99 1018.8
20260905084021 63 0 0.0 0.0 0.00 0.00 0.00 99 1018.7